Location: *
(51.1248°S, 108.4023°W)
Time: 04:54:45
(UTC+00:00)

CZ-2D R/B - Pass Details

Date: 15 June 2021
Orbit: 521 x 536 km, 97.4° (Epoch: 31 July)

Event Time Altitude Azimuth Distance (km) Brightness Sun altitude
Rises 13:30:23 0° 1° (N) 2,694 7.1 -15.5°
Reaches altitude 10° 13:32:33 10° 355° (N) 1,809 6.1 -15.2°
Maximum altitude 13:36:21 49° 279° (W) 713 3.5 -14.6°
Enters shadow 13:39:23 15° 207° (SSW) 1,509 5.1 -14.2°
